Location: Calimesa Mobile Home Ranch
(33.9736°N, 117.0370°W)
Time: 12:28:10
(UTC+00:00)

Daily predictions for brighter satellites

Satellite Brightness Start Highest point End
(mag) Time Altitude Azimuth Time Altitude Azimuth Time Altitude Azimuth
Cosmos 1727 Rocket 4.1 12:06:30 10° N 12:12:47 84° W 12:19:06 10° S
Thor Agena Rocket 4.2 12:11:00 10° N 12:15:50 39° WNW 12:20:42 10° SW
ATLAS CENTAUR Rocket 4.5 12:00:29 10° WSW 12:43:36 55° S 12:49:51 10° E
